Fort Smith, AR

9:16 PM CDT on March 28, 2017 (GMT -0500)
Fort Smith Regional

Weather History for KFSM - May, 2012

Change the Weather History Date:

Thursday, May 31, 2012

  Actual Average Record
Temperature  
Mean Temperature 74 °F 74 °F  
Max Temperature 84 °F 84 °F 99 °F (1934)
Min Temperature 64 °F 64 °F 42 °F (1889)
Cooling Degree Days 9 9  
Month to date cooling degree days 342 178  
Year to date cooling degree days 569 244  
Growing Degree Days 26 (Base 50)    
Moisture  
Dew Point 59 °F    
Average Humidity 59    
Maximum Humidity 79    
Minimum Humidity 39    
Precipitation  
Precipitation T in 0.17 in 2.25 in (1890)
Month to date precipitation 1.15 5.47  
Year to date precipitation 18.80 19.19  
Sea Level Pressure  
Sea Level Pressure 29.80 in    
Wind  
Wind Speed 10 mph (North)    
Max Wind Speed 23 mph    
Max Gust Speed 30 mph    
Visibility 10 miles    
Events Rain , Thunderstorm    
T = Trace of Precipitation, MM = Missing Value Source: NWS Daily Summary

Daily Weather History Graph

Daily Weather History Graph

Search for Another Location

Airport or City:

Trip Planner

Search our weather history database for the weather conditions in past years. The results will help you decide how hot, cold, wet, or windy it might be!

Date:

Astronomy

May. 31, 2012 Rise Set
Actual Time 6:04 AM CDT 8:26 PM CDT
Civil Twilight 5:34 AM CDT 8:56 PM CDT
Nautical Twilight 4:58 AM CDT 9:32 PM CDT
Astronomical Twilight 4:19 AM CDT 10:11 PM CDT
Moon 4:23 PM CDT (5/31) 2:54 AM CDT (5/31)
Length of Visible Light 15h 21m
Length of Day
14h 22m
Waxing Gibbous, 80% of the Moon is Illuminated
May 31
Waxing Gibbous
Jun 4
Full
Jun 11
Last Quarter
Jun 19
New
Jun 26
First Quarter

Hourly Weather History & Observations

Time (CDT) Temp. Heat Index Dew Point Humidity Pressure Visibility Wind Dir Wind Speed Gust Speed Precip Events Conditions
12:53 AM 79.0 °F - 64.0 °F 60% 29.77 in 10.0 mi Calm Calm - N/A   Clear
1:53 AM 78.1 °F - 66.0 °F 66% 29.72 in 10.0 mi East 5.8 mph - N/A   Clear
2:53 AM 77.0 °F - 66.0 °F 69% 29.71 in 10.0 mi NE 6.9 mph - N/A   Clear
3:53 AM 77.0 °F - 66.0 °F 69% 29.73 in 10.0 mi North 13.8 mph 21.9 mph N/A   Overcast
4:03 AM 75.2 °F - 64.4 °F 69% 29.74 in 10.0 mi North 13.8 mph - 0.00 in Rain , Thunderstorm Light Rain
4:18 AM 73.4 °F - 62.6 °F 69% 29.74 in 10.0 mi North 12.7 mph - 0.00 in   Scattered Clouds
4:53 AM 73.9 °F - 63.0 °F 68% 29.71 in 10.0 mi ENE 6.9 mph - 0.00 in   Clear
5:53 AM 72.0 °F - 64.9 °F 78% 29.70 in 10.0 mi East 5.8 mph - N/A   Clear
6:53 AM 72.0 °F - 64.9 °F 78% 29.73 in 10.0 mi NE 5.8 mph - N/A   Clear
7:53 AM 73.9 °F - 63.0 °F 68% 29.76 in 10.0 mi NNE 6.9 mph - N/A   Clear
8:24 AM 73.4 °F - 62.6 °F 69% 29.80 in 10.0 mi WNW 9.2 mph - N/A   Mostly Cloudy
8:53 AM 72.0 °F - 63.0 °F 73% 29.79 in 10.0 mi NNW 8.1 mph - N/A   Overcast
9:53 AM 72.0 °F - 62.1 °F 71% 29.80 in 10.0 mi NNW 10.4 mph - N/A   Overcast
10:15 AM 73.4 °F - 62.6 °F 69% 29.81 in 10.0 mi NW 10.4 mph 18.4 mph N/A   Overcast
10:53 AM 75.9 °F - 62.1 °F 62% 29.79 in 10.0 mi NW 11.5 mph - N/A   Mostly Cloudy
11:53 AM 78.1 °F - 61.0 °F 56% 29.81 in 10.0 mi NNW 11.5 mph 21.9 mph N/A   Mostly Cloudy
12:53 PM 79.0 °F - 61.0 °F 54% 29.82 in 10.0 mi NNW 8.1 mph 17.3 mph N/A   Overcast
1:53 PM 82.9 °F 83.3 °F 61.0 °F 47% 29.80 in 10.0 mi NW 13.8 mph 19.6 mph N/A   Mostly Cloudy
2:53 PM 82.9 °F 83.2 °F 60.1 °F 46% 29.80 in 10.0 mi NNW 13.8 mph 24.2 mph N/A   Scattered Clouds
3:53 PM 82.9 °F 82.8 °F 59.0 °F 44% 29.79 in 10.0 mi NNW 16.1 mph 23.0 mph N/A   Partly Cloudy
4:53 PM 81.0 °F 80.5 °F 54.0 °F 39% 29.80 in 10.0 mi NW 15.0 mph 21.9 mph N/A   Clear
5:53 PM 77.0 °F - 50.0 °F 39% 29.81 in 10.0 mi North 17.3 mph 29.9 mph N/A   Clear
6:53 PM 75.9 °F - 50.0 °F 40% 29.82 in 10.0 mi NNW 13.8 mph - N/A   Partly Cloudy
7:53 PM 73.9 °F - 48.9 °F 41% 29.86 in 10.0 mi North 11.5 mph - N/A   Partly Cloudy
8:53 PM 71.1 °F - 48.9 °F 45% 29.90 in 10.0 mi North 8.1 mph - N/A   Clear
9:53 PM 69.1 °F - 48.0 °F 47% 29.92 in 10.0 mi NNW 6.9 mph - N/A   Clear
10:53 PM 68.0 °F - 48.0 °F 49% 29.94 in 10.0 mi NNW 9.2 mph - N/A   Clear
11:53 PM 64.9 °F - 48.0 °F 54% 29.95 in 10.0 mi NNW 5.8 mph - N/A   Clear